• In Germany
  • List of Countries
  • For 7 days
  • Water Temperature
  • Satellite Maps
  • Weather Map
  • Weather Widgets
  • user-avatar
    Login

    Hourly Weather Mykhnivka

    Today, 28 May, Monday

    Time Temperature Precipitation Wind Pressure Humidity
    00:00 +14°C° 0 mm 2 mps 743 mmHg 81%
    01:00 +14°C° 0 mm 2 mps 744 mmHg 81%
    02:00 +13°C° 0 mm 2 mps 744 mmHg 81%
    03:00 +13°C° 0 mm 2 mps 744 mmHg 81%
    04:00 +12°C° 0 mm 2 mps 744 mmHg 82%
    05:00 +12°C° 0 mm 2 mps 744 mmHg 82%
    06:00 +14°C° 0 mm 2 mps 744 mmHg 77%
    07:00 +16°C° 0 mm 2 mps 745 mmHg 72%
    08:00 +18°C° 0 mm 3 mps 745 mmHg 68%
    09:00 +19°C° 0 mm 3 mps 745 mmHg 63%
    10:00 +20°C° 0 mm 3 mps 745 mmHg 59%
    11:00 +21°C° 0 mm 4 mps 745 mmHg 54%
    12:00 +22°C° 0 mm 4 mps 745 mmHg 53%
    13:00 +22°C° 0 mm 4 mps 745 mmHg 52%
    14:00 +24°C° 0 mm 3 mps 745 mmHg 51%
    15:00 +24°C° 0 mm 3 mps 744 mmHg 53%
    16:00 +24°C° 0 mm 3 mps 744 mmHg 55%
    17:00 +22°C° 0 mm 3 mps 744 mmHg 57%
    18:00 +21°C° 0 mm 3 mps 744 mmHg 64%
    19:00 +19°C° 0 mm 3 mps 744 mmHg 70%
    20:00 +17°C° 0 mm 2 mps 744 mmHg 76%
    21:00 +17°C° 0 mm 2 mps 744 mmHg 78%
    22:00 +16°C° 0 mm 2 mps 745 mmHg 80%
    23:00 +15°C° 0 mm 2 mps 745 mmHg 82%

    Tomorrow, 29 May, Tuesday

    Time Temperature Precipitation Wind Pressure Humidity
    00:00 +14°C° 0 mm 2 mps 745 mmHg 84%
    01:00 +14°C° 0 mm 2 mps 745 mmHg 86%
    02:00 +13°C° 0 mm 2 mps 745 mmHg 88%
    03:00 +13°C° 0 mm 2 mps 745 mmHg 89%
    04:00 +13°C° 0 mm 2 mps 745 mmHg 90%
    05:00 +13°C° 0 mm 2 mps 745 mmHg 90%
    06:00 +15°C° 0 mm 2 mps 745 mmHg 85%
    07:00 +17°C° 0 mm 3 mps 745 mmHg 80%
    08:00 +19°C° 0 mm 3 mps 745 mmHg 74%
    09:00 +20°C° 0 mm 3 mps 745 mmHg 69%
    10:00 +22°C° 0 mm 4 mps 745 mmHg 64%
    11:00 +23°C° 0 mm 4 mps 745 mmHg 59%
    12:00 +23°C° 0 mm 4 mps 744 mmHg 59%
    13:00 +25°C° 0 mm 4 mps 744 mmHg 58%
    14:00 +26°C° 0 mm 4 mps 744 mmHg 57%
    15:00 +25°C° 0.1 mm 4 mps 743 mmHg 61%
    16:00 +25°C° 0.1 mm 4 mps 743 mmHg 65%
    17:00 +23°C° 0.1 mm 4 mps 742 mmHg 69%
    18:00 +22°C° 0 mm 4 mps 742 mmHg 75%
    19:00 +20°C° 0 mm 3 mps 742 mmHg 82%
    20:00 +19°C° 0 mm 3 mps 742 mmHg 88%
    21:00 +18°C° 0 mm 3 mps 742 mmHg 89%
    22:00 +17°C° 0 mm 3 mps 742 mmHg 90%
    23:00 +16°C° 0 mm 3 mps 742 mmHg 92%

    Day after tomorrow, 30 May, Wednesday

    Time Temperature Precipitation Wind Pressure Humidity
    00:00 +16°C° 0 mm 3 mps 742 mmHg 91%
    01:00 +14°C° 0 mm 3 mps 742 mmHg 90%
    02:00 +13°C° 0 mm 3 mps 741 mmHg 89%
    03:00 +13°C° 0 mm 3 mps 741 mmHg 89%
    04:00 +13°C° 0 mm 3 mps 741 mmHg 89%
    05:00 +12°C° 0 mm 3 mps 741 mmHg 88%
    06:00 +14°C° 0 mm 3 mps 741 mmHg 83%
    07:00 +17°C° 0 mm 3 mps 741 mmHg 78%
    08:00 +19°C° 0 mm 3 mps 741 mmHg 73%
    09:00 +20°C° 0 mm 3 mps 741 mmHg 67%
    10:00 +22°C° 0 mm 3 mps 740 mmHg 62%
    11:00 +24°C° 0 mm 3 mps 740 mmHg 56%
    12:00 +24°C° 0 mm 3 mps 740 mmHg 54%
    13:00 +25°C° 0 mm 3 mps 740 mmHg 51%
    14:00 +25°C° 0 mm 3 mps 739 mmHg 49%
    15:00 +25°C° 0 mm 3 mps 739 mmHg 51%
    16:00 +25°C° 0 mm 3 mps 738 mmHg 52%
    17:00 +25°C° 0 mm 3 mps 738 mmHg 54%
    18:00 +23°C° 0 mm 2 mps 738 mmHg 59%
    19:00 +20°C° 0 mm 2 mps 737 mmHg 65%
    20:00 +18°C° 0 mm 2 mps 737 mmHg 71%
    21:00 +18°C° 0 mm 2 mps 737 mmHg 72%
    22:00 +17°C° 0 mm 2 mps 737 mmHg 73%
    23:00 +16°C° 0 mm 2 mps 737 mmHg 75%

    31 May, Thursday

    Time Temperature Precipitation Wind Pressure Humidity
    00:00 +15°C° 0 mm 1 mps 737 mmHg 75%
    01:00 +15°C° 0 mm 1 mps 736 mmHg 76%
    02:00 +14°C° 0 mm 1 mps 736 mmHg 76%
    03:00 +14°C° 0 mm 1 mps 736 mmHg 77%
    04:00 +14°C° 0 mm 1 mps 735 mmHg 78%
    05:00 +14°C° 0 mm 1 mps 735 mmHg 79%
    06:00 +16°C° 0 mm 1 mps 735 mmHg 74%
    07:00 +19°C° 0 mm 1 mps 735 mmHg 68%
    08:00 +21°C° 0 mm 1 mps 735 mmHg 63%
    09:00 +22°C° 0 mm 1 mps 735 mmHg 59%
    10:00 +23°C° 0 mm 1 mps 735 mmHg 54%
    11:00 +25°C° 0 mm 1 mps 735 mmHg 50%
    12:00 +25°C° 0 mm 1 mps 734 mmHg 48%
    13:00 +25°C° 0 mm 1 mps 734 mmHg 47%
    14:00 +26°C° 0 mm 1 mps 733 mmHg 45%
    15:00 +26°C° 0 mm 1 mps 733 mmHg 46%
    16:00 +26°C° 0 mm 1 mps 733 mmHg 46%
    17:00 +24°C° 0 mm 0 mps 732 mmHg 46%
    18:00 +22°C° 0 mm 0 mps 732 mmHg 52%
    19:00 +22°C° 0 mm 1 mps 732 mmHg 57%
    20:00 +21°C° 0 mm 1 mps 732 mmHg 62%
    21:00 +20°C° 0 mm 1 mps 732 mmHg 64%
    22:00 +19°C° 0 mm 1 mps 732 mmHg 66%
    23:00 +19°C° 0 mm 1 mps 732 mmHg 67%

    1 June, Friday

    Time Temperature Precipitation Wind Pressure Humidity
    00:00 +18°C° 0.3 mm 1 mps 731 mmHg 73%
    01:00 +17°C° 0.3 mm 2 mps 731 mmHg 78%
    02:00 +17°C° 0.3 mm 2 mps 731 mmHg 83%
    03:00 +16°C° 1.1 mm 3 mps 731 mmHg 87%
    04:00 +15°C° 1.1 mm 4 mps 731 mmHg 91%
    05:00 +14°C° 1.1 mm 5 mps 731 mmHg 95%
    06:00 +14°C° 2.3 mm 5 mps 731 mmHg 95%
    07:00 +14°C° 2.3 mm 5 mps 731 mmHg 95%
    08:00 +14°C° 2.3 mm 6 mps 731 mmHg 95%
    09:00 +14°C° 1.5 mm 6 mps 732 mmHg 94%
    10:00 +14°C° 1.5 mm 7 mps 732 mmHg 93%
    11:00 +14°C° 1.5 mm 7 mps 732 mmHg 91%
    12:00 +12°C° 0.7 mm 8 mps 733 mmHg 91%
    13:00 +12°C° 0.7 mm 8 mps 733 mmHg 90%
    14:00 +11°C° 0.7 mm 8 mps 733 mmHg 90%
    15:00 +11°C° 0.4 mm 8 mps 734 mmHg 89%
    16:00 +10°C° 0.4 mm 8 mps 734 mmHg 88%
    17:00 +10°C° 0.4 mm 8 mps 734 mmHg 87%
    18:00 +10°C° 0.4 mm 8 mps 734 mmHg 88%
    19:00 +9°C° 0.4 mm 8 mps 735 mmHg 89%
    20:00 +9°C° 0.4 mm 8 mps 735 mmHg 89%
    21:00 +7°C° 0.9 mm 8 mps 735 mmHg 90%
    22:00 +7°C° 0.9 mm 8 mps 735 mmHg 90%
    23:00 +7°C° 0.9 mm 8 mps 735 mmHg 91%

    2 June, Saturday

    Time Temperature Precipitation Wind Pressure Humidity
    00:00 +7°C° 1.5 mm 8 mps 734 mmHg 90%
    01:00 +6°C° 1.5 mm 8 mps 734 mmHg 90%
    02:00 +6°C° 1.5 mm 8 mps 734 mmHg 90%
    03:00 +6°C° 1.5 mm 8 mps 733 mmHg 90%
    04:00 +6°C° 1.5 mm 9 mps 733 mmHg 90%
    05:00 +5°C° 1.5 mm 9 mps 733 mmHg 90%
    06:00 +5°C° 2 mm 9 mps 733 mmHg 90%
    07:00 +5°C° 2 mm 9 mps 733 mmHg 91%
    08:00 +5°C° 2 mm 10 mps 733 mmHg 92%
    09:00 +5°C° 3.1 mm 10 mps 733 mmHg 92%
    10:00 +5°C° 3.1 mm 9 mps 733 mmHg 93%
    11:00 +5°C° 3.1 mm 9 mps 733 mmHg 93%
    12:00 +5°C° 1.9 mm 9 mps 733 mmHg 93%
    13:00 +6°C° 1.9 mm 9 mps 733 mmHg 94%
    14:00 +6°C° 1.9 mm 8 mps 733 mmHg 94%
    15:00 +6°C° 1.1 mm 8 mps 733 mmHg 94%
    16:00 +8°C° 1.1 mm 7 mps 733 mmHg 95%
    17:00 +8°C° 1.1 mm 7 mps 733 mmHg 95%
    18:00 +9°C° 0.5 mm 6 mps 733 mmHg 95%
    19:00 +9°C° 0.5 mm 6 mps 733 mmHg 96%
    20:00 +9°C° 0.5 mm 6 mps 732 mmHg 96%
    21:00 +9°C° 1.2 mm 5 mps 732 mmHg 96%
    22:00 +9°C° 1.2 mm 5 mps 732 mmHg 97%
    23:00 +9°C° 1.2 mm 5 mps 732 mmHg 97%
    Show more